Location: ??????????
(54.7560°N, 39.1389°E)
Time: 17:00:50
(UTC+00:00)

NOSS 3-1 (C) - Pass Details

Date: 19 May 2025
Orbit: 625 x 1577 km, 63.4° (Epoch: 18 June)

Event Time Altitude Azimuth Distance (km) Brightness Sun altitude
Rises 18:31:22 0° 196° (SSW) 2,983 5.7 -7.1°
Reaches altitude 10° 18:33:38 10° 188° (S) 2,140 4.9 -7.3°
Maximum altitude 18:38:02 37° 121° (ESE) 1,196 3.6 -7.7°
Drops below altitude 10° 18:43:18 10° 57° (ENE) 2,575 5.7 -8.2°
Sets 18:46:17 0° 50° (NE) 3,680 6.6 -8.4°
